sat.trackr.live / text

‹ back to catalog

STARLINK-4637

NORAD 53742 · 2022-107AU

PAYLOAD ACTIVE UNKNOWN

§ Identity

Operator
Country
US
Launch date
2022-09-05
Launch site
AFETR
Launch vehicle
Mass (kg)
RCS (m²)

Purposes: comms

External: N2YO · Heavens-Above · Gunter

§ Orbital elements

Epoch: 2026-05-24T19:04:14.849184Z

Period
95.44 min
Inclination
53.2156°
Eccentricity
0.0001247
Mean motion
15.08839971 rev/d
Perigee alt
538.9 km
Apogee alt
540.6 km
Semi-major
6,917.9 km
B*
4.3959e-5
RAAN
282.4017°
Arg perigee
94.2129°
Mean anomaly
265.9005°
Rev number
20,608

§ Raw data

STARLINK-46371 53742U 22107AU  26144.79461631  .00000412  00000+0  43959-4 0  99972 53742  53.2156 282.4017 0001247  94.2129 265.9005 15.08839971206084

JSON: /api/v1/satellites/53742 · /tle

For live sub-satellite position, see the globe view (requires WebGL).

§ Visibility from observer

Set your observer location to see the next 7 days of passes ≥ 10°. The values pass through the URL so the page stays shareable.

No JS? Fill the form by hand. The geolocation button needs JavaScript.